Wind_Speed
4 4 4 3 3 3 3 3 4 4 5 6 6 7 8 9 9 10 10 11 11 11 12 12 11 11 11 10 10 10 9 9 9 8 8 7 6 5 5 5 4 4 4
4 4 4 3 3 3 4 4 5 6 6 7 8 9 10 9 10 12 11 11 11 11 12 11 11 11 11 11 11 10 10 10 10 9 9 8 7 6 6 5 5 5 4
4 3 3 3 3 4 4 5 6 7 7 8 9 9 9 9 11 12 12 12 12 12 13 12 12 12 12 12 12 12 11 10 10 10 10 9 8 7 7 6 5 4 4
4 4 4 4 4 4 5 5 6 7 8 8 9 9 10 10 11 12 12 12 12 12 12 12 12 12 13 12 12 12 12 12 11 11 11 9 9 8 8 7 6 5 4
5 4 4 5 5 5 5 6 6 7 8 9 9 10 10 10 11 11 12 12 12 12 12 12 12 13 13 13 13 13 12 13 12 11 11 10 9 9 8 8 6 5 5
5 5 4 4 4 5 5 6 7 7 8 9 10 11 11 11 11 11 11 11 12 12 12 12 12 12 13 13 14 13 13 13 13 13 12 10 10 9 9 9 8 6 6
5 4 3 4 4 5 5 5 6 8 9 9 10 10 10 11 11 12 12 11 11 11 11 12 13 13 13 13 13 14 14 14 13 14 12 11 10 10 10 9 9 7 6
4 4 4 4 5 5 5 5 6 7 8 9 10 10 11 11 12 12 12 12 12 11 12 12 13 14 14 14 13 13 14 14 14 14 14 12 11 11 11 10 9 9 7
4 4 4 4 5 5 5 6 7 7 8 9 10 10 11 12 12 12 12 11 11 12 12 13 13 14 15 15 14 14 14 15 14 14 14 14 12 12 11 11 10 9 8
4 3 3 4 4 4 5 6 7 8 9 9 10 11 12 12 13 13 12 12 12 12 12 13 13 14 15 15 15 15 15 15 15 15 14 15 14 13 12 11 10 10 9
4 4 3 3 3 4 5 7 7 8 9 10 11 12 13 13 13 13 12 13 13 13 13 13 14 14 15 15 15 16 16 16 16 16 15 15 15 14 13 12 11 11 10
4 3 3 3 4 5 6 7 8 9 10 11 12 12 13 14 14 14 13 13 13 13 14 14 14 14 14 15 15 15 16 16 16 16 16 16 16 14 14 13 12 12 11
4 3 3 3 4 5 6 7 8 9 10 11 12 13 14 14 14 14 14 14 14 14 14 14 14 14 14 14 14 15 16 16 16 16 17 17 17 16 15 14 14 13 12
3 2 3 4 4 5 6 7 8 9 11 12 13 14 14 14 14 14 14 14 14 14 15 15 14 14 14 15 14 15 15 15 15 16 17 17 17 17 16 15 15 15 14
3 3 3 4 4 5 6 8 9 10 11 12 14 15 14 14 14 14 15 15 15 15 15 14 14 15 15 15 15 15 14 15 15 16 16 18 18 18 17 17 16 16 14
3 3 3 4 5 6 7 8 10 11 12 13 14 15 15 15 15 15 16 16 16 16 15 15 15 15 14 15 15 15 14 15 15 16 16 17 18 19 18 18 17 17 16
3 3 4 4 5 6 7 9 10 11 13 13 14 14 15 16 16 16 17 17 16 16 16 15 15 15 14 14 14 14 14 15 15 16 17 17 18 19 19 19 19 18 17
3 3 4 4 5 6 8 9 10 12 13 14 14 15 16 16 17 17 17 17 17 16 16 15 14 14 13 13 13 13 14 14 15 16 17 18 18 19 20 20 20 19 19
3 3 4 5 6 7 8 9 11 12 13 14 14 15 16 17 17 17 17 17 17 16 16 14 14 13 12 12 12 12 13 14 14 16 17 18 18 19 20 21 21 21 20
4 4 5 5 6 7 8 9 11 12 13 14 14 15 16 17 18 18 18 17 17 16 15 14 13 12 11 10 10 11 12 12 14 16 17 18 18 18 19 21 21 22 21
4 5 5 6 7 8 8 10 11 12 13 14 14 15 17 17 18 18 18 17 17 17 16 14 13 12 11 10 9 10 11 11 12 14 16 17 18 18 19 21 21 22 22
5 5 6 7 7 8 9 10 11 12 13 13 14 15 16 17 18 18 18 17 17 17 16 15 14 12 10 9 8 9 9 10 11 12 14 16 17 18 19 20 22 21 22
5 6 7 7 8 8 9 10 11 12 13 13 14 15 16 17 18 18 18 17 17 17 16 15 14 12 10 9 8 7 8 9 10 11 12 15 17 18 19 20 22 22 22
5 6 6 7 8 8 9 9 11 12 12 13 14 15 16 17 18 17 17 17 17 17 17 15 13 12 10 9 8 7 7 7 9 10 11 14 16 17 19 20 21 21 22
5 5 6 7 7 8 9 9 11 12 13 13 14 15 15 17 17 17 17 17 16 16 16 15 13 12 10 9 8 7 7 7 7 9 10 12 14 15 17 20 21 21 22
4 5 6 7 7 8 9 9 11 12 13 13 14 15 15 16 17 17 17 16 16 16 16 15 13 12 10 9 8 7 7 6 7 8 9 11 12 14 16 18 20 21 21
Wind_Direction
236 248 260 267 272 283 281 283 292 292 294 295 293 290 293 294 292 294 292 287 280 275 271 267 264 262 260 261 259 256 254 253 253 256 259 262 267 271 273 274 279 286 278
234 244 253 262 274 281 282 290 297 299 298 299 297 296 293 293 292 293 293 290 284 279 274 270 264 262 261 260 258 256 255 254 253 254 257 259 263 264 262 264 271 273 268
236 245 256 266 277 285 290 298 305 307 306 304 303 303 298 298 297 296 293 291 290 282 273 268 266 263 262 260 258 257 255 255 254 254 258 259 260 257 256 258 260 255 251
230 241 258 271 284 293 297 305 309 309 309 309 307 308 305 302 301 298 295 294 292 287 280 270 267 266 263 261 260 260 257 255 255 256 259 257 256 257 252 253 252 244 227
229 244 263 278 289 296 301 307 310 314 316 316 314 314 313 308 304 302 298 294 292 287 284 280 273 270 264 263 263 260 258 255 256 257 257 255 255 256 249 246 243 233 217
240 256 263 280 295 300 300 304 311 315 318 318 317 317 316 314 311 309 304 300 295 289 284 283 278 276 268 264 262 259 258 257 258 254 253 252 252 253 246 239 237 231 219
248 256 265 285 302 306 306 311 314 320 321 322 324 325 323 319 316 313 310 305 299 292 286 282 281 278 274 272 266 260 257 256 257 253 250 249 249 249 243 236 233 230 224
243 252 262 287 302 306 313 320 324 328 330 330 331 330 327 324 321 318 314 308 303 296 289 286 282 279 276 274 271 266 260 257 254 251 248 247 245 244 240 233 232 228 226
246 258 280 295 304 308 321 329 333 335 336 333 333 331 329 326 323 320 315 312 306 301 295 288 283 279 277 274 270 267 263 259 253 249 248 247 243 240 237 231 226 225 225
249 257 280 297 306 315 330 336 336 337 336 334 333 331 329 327 325 321 317 312 307 304 299 292 287 282 279 275 270 266 263 259 254 250 247 245 242 238 235 228 224 221 221
250 265 288 296 310 327 331 335 337 336 336 335 333 331 331 330 327 323 318 314 309 306 301 296 290 286 281 276 272 267 262 258 252 249 245 241 238 236 232 228 227 223 221
254 270 290 307 317 322 327 333 336 337 337 336 333 331 330 329 326 324 320 317 312 307 303 298 292 287 282 277 272 266 262 258 253 248 243 240 235 231 230 228 225 225 223
254 270 292 317 324 326 330 336 338 338 339 338 336 334 331 329 327 323 319 317 314 309 305 300 294 288 282 277 271 268 262 258 253 247 242 238 231 228 229 228 225 226 224
250 262 301 318 331 333 334 337 338 338 339 339 339 337 335 332 329 326 322 320 317 314 308 303 296 289 283 277 273 269 264 257 250 246 240 235 230 228 228 229 228 226 224
244 281 311 331 333 335 336 334 335 336 340 341 341 339 338 337 334 330 327 324 320 317 312 307 300 294 287 280 274 269 264 256 251 247 240 234 228 228 228 228 227 225 223
256 287 305 320 330 334 336 337 338 339 340 343 343 343 341 340 338 335 331 327 323 319 315 309 302 296 289 283 276 269 263 259 252 246 239 234 229 228 226 225 224 223 221
271 294 308 317 330 337 338 340 342 344 342 341 342 343 342 342 340 337 333 329 326 322 318 312 306 299 292 284 276 270 263 257 251 246 240 235 230 228 225 225 224 221 221
273 298 311 320 330 337 341 344 346 344 344 342 341 341 342 342 341 339 336 333 329 325 323 318 312 304 295 287 277 271 265 256 249 243 241 237 232 229 227 225 223 221 221
277 296 310 319 329 335 339 343 346 345 345 343 342 342 342 343 342 340 338 336 333 329 327 323 317 310 300 290 279 272 266 258 250 243 240 236 233 231 228 225 222 221 221
279 293 303 318 329 334 336 341 344 345 344 344 345 344 343 343 343 342 340 339 338 335 332 329 324 317 306 295 284 274 267 260 252 245 239 235 233 231 229 226 223 222 222
278 295 307 317 324 329 333 337 340 342 342 344 345 345 344 344 343 343 343 343 343 341 337 332 328 322 313 302 291 279 270 262 254 248 241 235 233 232 230 227 224 223 223
277 293 307 312 319 325 329 333 337 339 341 342 344 344 344 344 344 344 345 344 344 343 342 338 334 328 318 308 298 286 273 263 257 251 242 235 233 231 230 229 226 225 223
277 294 307 310 317 320 324 330 335 336 338 340 342 342 343 344 345 345 345 345 345 346 346 343 339 335 327 317 307 298 284 268 260 254 244 236 233 232 230 229 227 227 225
282 296 307 311 315 317 321 328 332 335 336 337 339 340 342 344 345 345 345 345 345 345 346 346 342 339 333 325 315 304 291 276 261 256 248 239 236 232 229 228 228 228 227
288 301 311 316 319 320 321 328 333 334 334 335 337 339 341 344 345 346 346 346 347 347 346 347 346 343 338 331 323 313 302 282 266 259 250 243 237 235 232 229 227 229 228
294 309 320 323 324 323 323 327 331 333 334 335 337 338 340 343 345 346 346 347 348 350 350 350 348 346 344 339 332 323 314 297 278 268 254 246 240 236 234 231 229 228 227
Height
5868 5869 5869 5869 5870 5870 5870 5870 5869 5869 5869 5869 5869 5869 5869 5868 5868 5868 5868 5868 5868 5868 5868 5868 5868 5869 5869 5869 5870 5870 5870 5871 5871 5871 5872 5872 5872 5872 5872 5872 5872 5872 5872
5868 5868 5869 5869 5869 5869 5869 5869 5869 5869 5868 5868 5868 5868 5867 5867 5867 5866 5866 5866 5866 5866 5866 5866 5866 5867 5867 5867 5868 5868 5869 5869 5869 5870 5870 5870 5871 5871 5871 5871 5871 5871 5871
5867 5868 5868 5868 5869 5869 5869 5868 5868 5868 5867 5867 5867 5866 5866 5866 5865 5865 5864 5864 5864 5864 5864 5864 5864 5864 5865 5865 5866 5866 5867 5867 5867 5868 5868 5869 5869 5869 5870 5870 5870 5870 5870
5867 5867 5868 5868 5868 5868 5868 5868 5868 5867 5866 5866 5865 5865 5864 5864 5863 5863 5862 5862 5862 5862 5862 5862 5862 5862 5862 5863 5863 5864 5864 5865 5865 5866 5867 5867 5868 5868 5868 5868 5869 5869 5869
5866 5867 5867 5867 5867 5867 5867 5867 5867 5866 5865 5865 5864 5863 5863 5862 5862 5861 5860 5860 5860 5859 5859 5859 5860 5860 5860 5861 5861 5862 5862 5863 5863 5864 5865 5866 5866 5867 5867 5867 5868 5868 5868
5866 5866 5866 5866 5866 5866 5866 5866 5866 5865 5864 5864 5863 5862 5861 5861 5860 5859 5858 5858 5857 5857 5857 5857 5857 5858 5858 5858 5859 5859 5860 5861 5861 5862 5863 5864 5864 5865 5866 5866 5867 5867 5868
5865 5865 5866 5866 5866 5866 5865 5865 5865 5864 5863 5863 5862 5861 5860 5859 5858 5857 5856 5856 5855 5855 5855 5855 5855 5855 5855 5856 5856 5857 5857 5858 5859 5860 5861 5862 5863 5863 5864 5865 5866 5866 5867
5864 5865 5865 5865 5865 5865 5865 5864 5864 5863 5862 5862 5861 5860 5859 5858 5857 5856 5855 5854 5853 5853 5853 5852 5852 5852 5853 5853 5853 5854 5855 5855 5856 5857 5859 5860 5861 5862 5863 5864 5864 5866 5867
5863 5864 5864 5864 5864 5864 5864 5864 5863 5863 5862 5861 5860 5859 5857 5856 5855 5854 5853 5852 5851 5851 5850 5850 5850 5850 5850 5850 5850 5851 5852 5853 5853 5855 5856 5858 5859 5860 5861 5862 5863 5865 5866
5863 5863 5864 5864 5864 5863 5863 5863 5863 5862 5861 5860 5859 5858 5856 5855 5853 5852 5851 5850 5849 5848 5847 5847 5847 5846 5846 5847 5847 5848 5849 5849 5851 5852 5854 5855 5857 5858 5859 5861 5862 5864 5865
5862 5863 5863 5863 5863 5863 5863 5862 5862 5861 5860 5859 5858 5856 5855 5853 5852 5850 5849 5848 5846 5845 5845 5844 5843 5843 5843 5843 5844 5844 5845 5846 5848 5849 5851 5853 5854 5856 5857 5859 5861 5863 5864
5861 5862 5862 5862 5863 5863 5862 5862 5861 5860 5859 5858 5857 5855 5853 5852 5850 5849 5847 5845 5844 5843 5842 5841 5840 5840 5840 5840 5840 5841 5842 5843 5844 5846 5848 5849 5851 5854 5855 5857 5859 5861 5863
5860 5861 5861 5862 5862 5862 5861 5861 5860 5859 5858 5857 5855 5854 5852 5850 5848 5847 5845 5844 5842 5840 5839 5838 5837 5836 5836 5836 5837 5837 5838 5840 5841 5843 5845 5846 5849 5851 5853 5855 5857 5860 5861
5860 5861 5861 5861 5861 5861 5860 5860 5859 5858 5857 5856 5854 5852 5850 5848 5846 5845 5843 5841 5839 5838 5836 5835 5834 5833 5833 5833 5833 5834 5835 5836 5837 5839 5841 5844 5846 5848 5851 5853 5855 5858 5860
5860 5860 5860 5860 5860 5860 5860 5859 5858 5857 5856 5854 5853 5851 5849 5847 5845 5843 5841 5839 5837 5835 5833 5832 5830 5829 5829 5829 5829 5830 5831 5832 5834 5836 5838 5840 5843 5845 5848 5850 5853 5855 5858
5859 5860 5860 5860 5860 5859 5859 5858 5858 5856 5855 5853 5851 5849 5847 5845 5843 5840 5838 5836 5834 5832 5830 5828 5827 5826 5825 5825 5826 5826 5827 5829 5830 5832 5834 5837 5839 5842 5845 5848 5850 5853 5856
5858 5859 5859 5859 5859 5859 5858 5858 5857 5855 5854 5852 5850 5848 5846 5843 5841 5839 5836 5834 5831 5829 5827 5825 5823 5822 5822 5821 5822 5822 5824 5825 5826 5828 5831 5833 5836 5839 5842 5845 5848 5851 5854
5858 5858 5859 5859 5859 5858 5858 5857 5856 5854 5853 5851 5849 5847 5845 5842 5839 5837 5834 5831 5829 5826 5824 5822 5820 5819 5818 5818 5818 5819 5820 5821 5823 5825 5827 5830 5833 5836 5839 5842 5845 5848 5851
5857 5858 5858 5858 5858 5858 5857 5856 5855 5853 5852 5850 5848 5846 5843 5841 5838 5835 5832 5829 5826 5824 5821 5819 5817 5816 5815 5814 5815 5815 5816 5817 5819 5821 5824 5826 5829 5832 5835 5838 5841 5845 5848
5856 5857 5857 5857 5857 5857 5856 5855 5854 5852 5851 5849 5847 5845 5842 5839 5836 5833 5830 5827 5824 5822 5819 5817 5814 5813 5812 5811 5811 5812 5813 5814 5815 5817 5820 5823 5825 5828 5831 5835 5838 5842 5845
5855 5856 5856 5856 5856 5856 5855 5854 5853 5851 5850 5848 5846 5844 5841 5838 5835 5832 5829 5826 5823 5820 5817 5814 5812 5810 5809 5809 5809 5809 5810 5811 5812 5814 5816 5819 5822 5825 5828 5831 5835 5838 5842
5854 5855 5855 5855 5855 5855 5854 5853 5852 5850 5849 5847 5845 5843 5840 5837 5834 5831 5828 5824 5821 5818 5815 5812 5810 5808 5807 5806 5806 5807 5807 5809 5809 5811 5813 5816 5819 5822 5824 5827 5831 5835 5839
5854 5854 5854 5854 5854 5853 5853 5852 5851 5849 5848 5846 5844 5841 5839 5836 5833 5829 5826 5823 5820 5817 5814 5811 5808 5806 5805 5805 5804 5805 5805 5806 5807 5809 5810 5812 5815 5818 5821 5824 5827 5831 5835
5852 5853 5853 5852 5852 5852 5851 5850 5849 5848 5846 5845 5843 5840 5838 5835 5832 5828 5825 5822 5819 5816 5813 5810 5807 5805 5804 5803 5803 5803 5804 5804 5805 5806 5808 5809 5811 5814 5817 5820 5824 5827 5831
5851 5851 5851 5851 5851 5850 5850 5849 5848 5847 5845 5843 5841 5839 5837 5834 5831 5828 5825 5821 5818 5815 5812 5810 5807 5805 5804 5803 5802 5802 5802 5802 5803 5804 5805 5807 5809 5811 5814 5817 5820 5824 5827
5850 5850 5850 5850 5849 5849 5848 5847 5846 5845 5844 5842 5840 5838 5836 5833 5830 5827 5824 5821 5818 5815 5812 5809 5807 5805 5803 5802 5802 5801 5801 5801 5801 5802 5803 5804 5806 5808 5811 5814 5817 5820 5824